www.pogodaiklimat.ru

Погода и климат >> Архив погоды >> Бразилия >> Риу-Гранди-ду-Сул >> Дон-Педриту


ПОГОДА в Дон-Педриту

  • Прогноз погоды в Дон-Педриту
  • Монитор погоды в Дон-Педриту

АРХИВ ПОГОДЫ в Дон-Педриту

Время (UTC), дата Ветер
(напр.,м/с)
 
Видим.   Явления Облачность Т
(С)
Тd
(С)
f
(%)
Тe
(С)
Тes
(С)
Комфортность P
(гПа)
Po
(гПа)
Тmin
(С)
Tmax
(С)
R
(мм)
R24
(мм)
S
(см)
15 16.09 ЮВ 4
{7}
н/о н/о +16.6 +14.5 87 +16 +16 1013.2 995.2
16 16.09 ЮВ 5
{8}
н/о н/о +15.9 +13.9 88 +15 +15 1013.1 995.1
17 16.09 ЮВ 5
{8}
н/о н/о +15.8 +13.1 84 +15 +15 1014.0 995.9
18 16.09 ЮВ 5
{8}
н/о н/о +14.8 +11.9 83 +13 +13 1014.9 996.8
19 16.09 ЮВ 4
{7}
н/о н/о +14.0 +11.4 84 +12 +12 1014.5 996.3
20 16.09 ЮВ 4
{6}
н/о н/о +13.6 +11.4 87 +12 +12 1015.2 997.0 0.2
21 16.09 ЮВ 3
{6}
н/о н/о +13.4 +11.1 86 +12 +12 1016.3 998.0
22 16.09 ЮВ 3
{5}
н/о н/о +12.9 +10.2 84 +11 +11 1016.2 997.9
23 16.09 Ю 3
{5}
н/о н/о +12.7 +10.4 86 +11 +11 1016.7 998.4
00 17.09 Ю 3
{5}
н/о н/о +12.6 +10.4 86 +11 +11 1018.1 999.8
01 17.09 ЮВ 3
{4}
н/о н/о +12.1 +10.6 91 +11 +11 1018.2 999.8
02 17.09 ЮВ 3
{4}
н/о н/о +11.8 +10.2 90 +10 +10 1018.4 1000.0
03 17.09 Ю 3
{4}
н/о н/о +11.5 +10.0 90 +10 +10 1018.2 999.8
04 17.09 Ю 3
{4}
н/о н/о +11.8 +10.1 89 +10 +10 1018.4 1000.0
05 17.09 Ю 3
{5}
н/о н/о +10.4 +7.6 83 +8 +8 1018.4 999.9
06 17.09 Ю 3
{5}
н/о н/о +9.4 +6.3 81 +7 +7 1017.8 999.3
07 17.09 ЮВ 2
{5}
н/о н/о +8.9 +5.8 81 +7 +7 1017.6 999.0
08 17.09 ЮВ 2
{4}
н/о н/о +8.9 +5.8 81 +7 +7 1017.3 998.7
09 17.09 ЮВ 2
{3}
н/о н/о +7.3 +5.1 86 +6 +6 1017.0 998.3
10 17.09 В 1
{2}
н/о н/о +6.9 +4.8 86 +7 +7 1017.4 998.7
11 17.09 В 1
{2}
н/о н/о +9.2 +5.3 77 +9 +9 1017.2 998.7
12 17.09 В 2
{3}
н/о н/о +12.8 +5.3 60 +12 +12 1016.5 998.2
13 17.09 В 3
{4}
н/о н/о +16.0 +2.6 41 +16 +16 1015.7 997.6
14 17.09 ЮВ 3
{5}
н/о н/о +16.9 +1.3 35 +17 +17 1014.9 996.9
15 17.09 ЮВ 2
{5}
н/о н/о +17.3 +1.1 34 +18 +18 1014.4 996.4
16 17.09 Ю 2
{3}
н/о н/о +17.6 +1.0 33 +18 +18 1013.2 995.3
17 17.09 Ю 2
{3}
н/о н/о +17.6 +2.4 36 +18 +18 1012.2 994.3
18 17.09 Ю 1
{3}
н/о н/о +17.6 +2.7 37 +19 +19 1011.4 993.5
19 17.09 Ю 1
{2}
н/о н/о +17.9 +3.3 38 +19 +19 1010.6 992.7
20 17.09 Ю 1
{2}
н/о н/о +17.5 +6.4 48 +19 +19 1010.6 992.7
21 17.09 ЮЗ 1
{2}
н/о н/о +16.1 +7.2 56 +17 +17 1010.3 992.3
22 17.09 Ю 1
{2}
н/о н/о +14.8 +7.5 62 +16 +16 1010.2 992.1
23 17.09 С 1
{1}
н/о н/о +13.7 +7.9 68 +15 +15 1010.5 992.4
01 18.09 В 1
{2}
н/о н/о +10.8 +7.6 81 +10 +10 1011.2 992.9
03 18.09 Ю 1
{1}
н/о н/о +9.5 +7.4 87 +9 +9 1011.9 993.5
04 18.09 В 1
{2}
н/о н/о +9.3 +6.8 84 +9 +9 1011.8 993.4
05 18.09 СВ 1
{2}
н/о н/о +9.9 +6.8 81 +9 +9 1011.5 993.1
06 18.09 ЮВ 1
{2}
н/о н/о +7.2 +6.0 92 +6 +6 1010.4 991.8
07 18.09 СВ 2
{2}
н/о н/о +8.2 +6.0 86 +7 +7 1011.3 992.8
08 18.09 С 2
{3}
н/о н/о +9.4 +5.7 78 +8 +8 1012.4 994.0
09 18.09 В 1
{2}
н/о н/о +7.2 +5.4 88 +6 +6 1012.1 993.5
10 18.09 СВ 1
{2}
н/о н/о +7.4 +5.6 88 +6 +6 1013.0 994.4
11 18.09 С 2
{4}
н/о н/о +12.1 +7.1 71 +12 +12 1013.3 995.0
12 18.09 СЗ 1
{3}
н/о н/о +14.7 +8.5 66 +15 +15 1012.9 994.8
13 18.09 СЗ 1
{2}
н/о н/о +16.5 +7.8 56 +17 +17 1012.7 994.7
14 18.09 З 2
{3}
н/о н/о +18.3 +8.5 53 +19 +19 1012.6 994.7
15 18.09 ЮЗ 2
{4}
н/о н/о +18.8 +7.4 47 +20 +20 1011.8 994.0
16 18.09 ЮЗ 2
{4}
н/о н/о +19.8 +10.0 53 +22 +22 комфорт 1010.7 992.9
17 18.09 ЮЗ 3
{4}
н/о н/о +21.1 +8.1 43 +22 +22 комфорт 1009.9 992.2
18 18.09 Ю 2
{4}
н/о н/о +21.1 +7.4 41 +22 +22 комфорт 1009.5 991.8
19 18.09 ЮЗ 3
{4}
н/о н/о +21.1 +6.1 38 +22 +22 комфорт 1009.1 991.4
20 18.09 ЮЗ 2
{3}
н/о н/о +21.0 +5.9 37 +23 +23 комфорт 1008.7 991.0
21 18.09 Ю 1
{3}
н/о н/о +19.6 +6.3 42 +21 +21 комфорт 1008.6 990.9
22 18.09 В 2
{2}
н/о н/о +16.6 +6.9 53 +17 +17 1008.9 991.0
23 18.09 В 2
{2}
н/о н/о +13.2 +7.2 67 +13 +13 1009.1 991.0
00 19.09 В 2
{2}
н/о н/о +11.3 +6.6 73 +11 +11 1009.7 991.4
01 19.09 В 2
{2}
н/о н/о +10.8 +6.1 73 +10 +10 1009.7 991.4
02 19.09 В 2
{2}
н/о н/о +10.5 +5.9 73 +10 +10 1009.7 991.4
03 19.09 В 2
{3}
н/о н/о +12.0 +5.0 62 +11 +11 1009.2 991.0
04 19.09 В 2
{4}
н/о н/о +12.4 +5.1 61 +12 +12 1008.7 990.5
05 19.09 СВ 3
{4}
н/о н/о +13.4 +7.4 67 +13 +13 1007.9 989.8
06 19.09 СВ 2
{4}
н/о н/о +13.0 +7.8 71 +12 +12 1007.3 989.2
07 19.09 СВ 2
{4}
н/о н/о +12.6 +7.7 72 +12 +12 1006.8 988.7
08 19.09 СВ 2
{3}
н/о н/о +11.6 +7.5 76 +11 +11 1006.9 988.7
09 19.09 В 1
{2}
н/о н/о +9.9 +6.8 81 +10 +10 1007.1 988.8
10 19.09 В 2
{3}
н/о н/о +12.1 +6.2 67 +12 +12 1007.5 989.3
11 19.09 СВ 3
{4}
н/о н/о +15.2 +5.7 53 +15 +15 1007.7 989.7
12 19.09 СВ 3
{5}
н/о н/о +17.7 +7.1 50 +18 +18 1007.4 989.6
13 19.09 СВ 2
{5}
н/о н/о +19.9 +7.6 45 +21 +21 комфорт 1007.1 989.4
14 19.09 СВ 1
{3}
н/о н/о +22.2 +6.3 36 +23 +23 комфорт 1006.2 988.7
15 19.09 СЗ 1
{2}
н/о н/о +24.0 +7.0 34 +24 +24 комфорт 1005.7 988.3
16 19.09 З 2
{3}
н/о н/о +23.8 +6.5 33 +24 +24 комфорт 1005.3 987.9
17 19.09 З 2
{3}
н/о н/о +24.4 +6.7 32 +24 +24 комфорт 1005.0 987.6
18 19.09 ЮЗ 3
{4}
н/о н/о +24.2 +7.3 34 +24 +24 комфорт 1004.1 986.7
19 19.09 ЮЗ 3
{4}
н/о н/о +23.9 +8.1 36 +24 +24 комфорт 1004.1 986.7
20 19.09 Ю 4
{6}
н/о н/о +23.2 +8.3 38 +24 +24 комфорт 1005.4 987.9
21 19.09 Ю 3
{6}
н/о н/о +20.9 +9.4 48 +23 +23 комфорт 1006.2 988.6
22 19.09 ЮВ 2
{4}
н/о н/о +19.1 +9.4 53 +21 +21 комфорт 1007.1 989.4
23 19.09 ЮВ 1
{3}
н/о н/о +16.8 +9.9 64 +18 +18 1008.6 990.7
00 20.09 В 1
{2}
н/о н/о +15.5 +9.9 69 +16 +16 1009.8 991.8
01 20.09 В 2
{2}
н/о н/о +14.3 +9.9 75 +14 +14 1010.6 992.5
02 20.09 Ю 2
{4}
н/о н/о +14.1 +10.8 81 +14 +14 1011.4 993.3
03 20.09 ЮВ 3
{7}
н/о н/о +11.7 +8.0 78 +10 +10 1013.1 994.8
04 20.09 ЮВ 3
{5}
н/о н/о +11.0 +6.4 73 +9 +9 1013.8 995.4
05 20.09 Ю 3
{5}
н/о н/о +10.3 +6.4 77 +8 +8 1014.2 995.8
06 20.09 ЮВ 3
{5}
н/о н/о +10.4 +6.3 76 +8 +8 1014.6 996.2
07 20.09 Ю 3
{5}
н/о н/о +10.3 +6.4 77 +9 +9 1016.0 997.5
08 20.09 ЮВ 3
{4}
н/о н/о +10.0 +6.6 79 +8 +8 1016.8 998.3
09 20.09 ЮВ 2
{4}
н/о н/о +9.2 +6.2 81 +7 +7 1017.7 999.1
10 20.09 Ю 3
{4}
н/о н/о +8.1 +5.7 85 +6 +6 1018.3 999.7
12 20.09 ЮВ 4
{6}
н/о н/о +11.2 +4.3 62 +9 +9 1020.1 1001.6
14 20.09 ЮВ 4
{6}
н/о н/о +13.9 +0.7 40 +13 +13 1021.1 1002.8
15 20.09 ЮВ 3
{6}
н/о н/о +14.6 +1.4 41 +14 +14 1021.0 1002.7
16 20.09 Ю 3
{5}
н/о н/о +15.5 +0.6 36 +15 +15 1020.3 1002.1
17 20.09 ЮВ 3
{5}
н/о н/о +16.2 -0.8 31 +16 +16 1019.4 1001.3
18 20.09 ЮВ 3
{5}
н/о н/о +16.5 -1.5 29 +16 +16 1019.0 1000.9
19 20.09 ЮВ 3
{5}
н/о н/о +16.7 -1.7 28 +17 +17 1018.7 1000.6
20 20.09 ЮВ 2
{5}
н/о н/о +16.3 -0.7 31 +17 +17 1019.3 1001.2
21 20.09 Ю 2
{4}
н/о н/о +14.7 -0.7 35 +15 +15 1019.9 1001.7
22 20.09 Ю 2
{3}
н/о н/о +11.9 +1.7 50 +12 +12 1020.7 1002.3
23 20.09 В 1
{2}
н/о н/о +11.1 +0.7 49 +12 +12 1021.7 1003.2
00 21.09 В 2
{2}
н/о н/о +8.2 +1.9 64 +7 +7 1022.4 1003.7
01 21.09 В 1
{2}
н/о н/о +6.9 +2.5 74 +6 +6 1022.9 1004.1
02 21.09 В 2
{3}
н/о н/о +6.2 +2.0 74 +4 +4 1023.1 1004.2
03 21.09 В 2
{3}
н/о н/о +5.6 +1.8 77 +4 +4 1023.0 1004.1
04 21.09 В 2
{3}
н/о н/о +6.3 +1.0 69 +4 +4 1023.0 1004.2
05 21.09 В 2
{3}
н/о н/о +5.8 +1.0 71 +4 +4 1023.0 1004.1
06 21.09 В 2
{3}
н/о н/о +4.6 +0.9 77 +3 +3 1023.3 1004.3
07 21.09 С 1
{3}
н/о н/о +5.5 +0.9 72 +4 +4 1023.4 1004.5
08 21.09 ЮЗ 1
{2}
н/о н/о +4.7 +1.7 81 +5 +5 1023.7 1004.7
09 21.09 Ю 1
{1}
н/о н/о +4.4 +0.8 77 +4 +4 1024.0 1005.0
10 21.09 ЮВ 1
{1}
н/о н/о +4.0 +0.6 78 +4 +4 1024.5 1005.5
11 21.09 В 1
{1}
н/о н/о +8.0 +2.0 66 +9 +9 1024.7 1005.9
12 21.09 Ю 1
{1}
н/о н/о +11.2 +2.7 56 +12 +12 1024.4 1005.9
13 21.09 ЮВ 1
{2}
н/о н/о +14.4 +1.3 41 +15 +15 1024.0 1005.7
14 21.09 СВ 2
{3}
н/о н/о +17.0 -1.2 29 +18 +18 1023.4 1005.2
15 21.09 ЮВ 1
{3}
н/о н/о +18.3 -1.5 26 +19 +19 1022.7 1004.6
16 21.09 ЮЗ 2
{3}
н/о н/о +19.0 -1.1 26 +20 +20 1022.1 1004.1
17 21.09 ЮЗ 2
{3}
н/о н/о +19.2 -1.7 24 +20 +20 1021.6 1003.6
18 21.09 Ю 2
{3}
н/о н/о +19.4 -0.3 27 +20 +20 1021.0 1003.0
19 21.09 Ю 2
{3}
н/о н/о +19.1 +1.0 30 +20 +20 1020.4 1002.4
20 21.09 Ю 2
{4}
н/о н/о +18.8 +0.7 30 +19 +19 1020.6 1002.6
21 21.09 Ю 1
{3}
н/о н/о +17.2 +4.1 42 +18 +18 1021.2 1003.1
22 21.09 В 1
{2}
н/о н/о +15.1 +3.0 44 +17 +17 1022.1 1003.8
23 21.09 В 1
{2}
н/о н/о +12.2 +3.3 54 +12 +12 1022.9 1004.4
00 22.09 В 1
{2}
н/о н/о +9.3 +4.4 71 +9 +9 1023.9 1005.2
01 22.09 В 1
{2}
н/о н/о +7.5 +4.0 78 +7 +7 1024.2 1005.4
02 22.09 В 1
{2}
н/о н/о +6.6 +3.4 80 +6 +6 1024.1 1005.3
03 22.09 В 1
{2}
н/о н/о +6.4 +3.1 79 +5 +5 1024.4 1005.5
04 22.09 В 1
{2}
н/о н/о +5.7 +3.1 83 +5 +5 1024.3 1005.4
05 22.09 ЮВ 1
{2}
н/о н/о +5.9 +2.6 79 +5 +5 1024.2 1005.3
06 22.09 С 1
{2}
н/о н/о +5.6 +2.9 83 +6 +6 1024.1 1005.2
07 22.09 В 1
{1}
н/о н/о +4.7 +2.8 87 +5 +5 1024.3 1005.3
08 22.09 СВ 1
{1}
н/о н/о +5.7 +2.4 79 +6 +6 1024.7 1005.8
09 22.09 З 1
{5}
н/о н/о +5.2 +2.0 80 +4 +4 1026.9 1007.9
10 22.09 В 1
{5}
н/о н/о +7.5 +2.8 72 +7 +7 1027.4 1008.6
11 22.09 В 1
{2}
н/о н/о +10.8 +6.2 73 +11 +11 1028.2 1009.6
12 22.09 Ю 2
{3}
н/о н/о +12.8 +6.9 67 +12 +12 1029.0 1010.5
13 22.09 ЮВ 3
{4}
н/о н/о +16.3 +5.7 49 +16 +16 1029.2 1010.9
14 22.09 ЮВ 3
{4}
н/о н/о +17.9 +6.7 48 +18 +18 1029.0 1010.8
15 22.09 ЮВ 3
{5}
н/о н/о +18.6 +4.3 39 +19 +19 1029.1 1010.9
16 22.09 ЮВ 3
{5}
н/о н/о +19.6 +4.1 36 +20 +20 1028.7 1010.6
17 22.09 ЮВ 4
{5}
н/о н/о +19.5 +2.7 33 +20 +20 1028.1 1010.0
18 22.09 ЮВ 3
{6}
н/о н/о +19.8 +3.3 34 +20 +20 1027.7 1009.6
19 22.09 ЮВ 3
{6}
н/о н/о +19.2 +1.9 32 +20 +20 1027.4 1009.3
20 22.09 ЮВ 3
{6}
н/о н/о +18.8 +2.8 34 +19 +19 1027.2 1009.1
21 22.09 ЮВ 3
{5}
н/о н/о +17.3 +3.6 40 +17 +17 1027.6 1009.4
22 22.09 ЮВ 1
{4}
н/о н/о +14.3 +3.5 48 +15 +15 1028.1 1009.7
23 22.09 В 2
{2}
н/о н/о +11.4 +4.0 60 +11 +11 1028.5 1009.9
00 23.09 В 2
{3}
н/о н/о +9.3 +4.2 70 +8 +8 1029.3 1010.5
01 23.09 В 3
{4}
н/о н/о +8.7 +4.5 75 +7 +7 1029.5 1010.7
02 23.09 В 3
{4}
н/о н/о +8.5 +5.5 81 +6 +6 1029.6 1010.8
03 23.09 В 3
{5}
н/о н/о +8.2 +2.3 66 +6 +6 1029.6 1010.8
04 23.09 В 3
{5}
н/о н/о +7.6 +0.9 62 +5 +5 1029.4 1010.5
05 23.09 В 4
{5}
н/о н/о +7.0 +0.3 62 +4 +4 1028.9 1010.0
06 23.09 В 3
{5}
н/о н/о +5.8 +1.3 73 +3 +3 1028.9 1009.9
07 23.09 В 3
{4}
н/о н/о +5.5 +2.1 79 +3 +3 1028.4 1009.4
08 23.09 В 3
{4}
н/о н/о +5.4 +2.2 80 +2 +2 1028.6 1009.6
09 23.09 Ю 1
{4}
н/о н/о +4.4 +1.9 84 +3 +3 1029.5 1010.4
10 23.09 ЮВ 2
{3}
н/о н/о +4.8 +2.5 85 +3 +3 1029.8 1010.7
11 23.09 В 4
{6}
н/о н/о +9.0 +3.8 70 +6 +6 1029.7 1010.9
12 23.09 В 3
{6}
н/о н/о +12.3 +4.6 59 +11 +11 1029.6 1011.0

 

Местоположение метеостанции Дон-Педриту (Риу-Гранди-ду-Сул, Бразилия): широта -30.98 долгота -54.82 высота над уровнем моря 172 м.

В архиве по умолчанию представлена погода в Дон-Педриту за последнюю неделю. Архивные данные за месяц целиком и за предыдущие месяцы, начиная с января 2011 года, Вы можете получить, выбрав интересующий диапазон дат из раскрывающегося списка и нажав кнопку "Ввод!".


*Определитесь, кто Вы:
робот инопланетянин человек

Внимание! Время в таблицах - всемирное. Для получения местного времени необходимо прибавить поправку, которая равна -3 ч.

Смотрите также архив погоды в соседних городах и на ближайших метеорологических станциях:

Погода в Ривере (Уругвай) (69 км)
Погода в Сантана-ду-Ливраменту (Риу-Гранди-ду-Сул, Бразилия) (76 км)
Погода в Баже (Риу-Гранди-ду-Сул, Бразилия) (79 км)
Погода в Сан-Габриэле (Риу-Гранди-ду-Сул, Бразилия) (86 км)
Погода в Баже (Риу-Гранди-ду-Сул, Бразилия) (87 км)
Погода в Такуарембо (Уругвай) (136 км)
Погода в Какапава-ду-Суле (Риу-Гранди-ду-Сул, Бразилия) (138 км)
Погода в Алегрети (Риу-Гранди-ду-Сул, Бразилия) (156 км)
Погода в Мело (Уругвай) (165 км)
Погода в Куараи (Риу-Гранди-ду-Сул, Бразилия) (169 км)

Пояснения к столбцам:

Ветер - указаны скорость ветра в м/с - средняя за 10 мин, порывы в срок и между сроками (в фигурных скобках) и направление, откуда дует ветер: С - северный, СВ - северо-восточный, В - восточный, ЮВ - юго-восточный, Ю - южный, ЮЗ - юго-западный, З - западный, СЗ - северо-западный.
Видимость - горизонтальная дальность видимости в метрах или километрах. При видимости от 1 до 10 км при отсутствии осадков обычно наблюдается дымка, при ухудшении видимости до 1 км и менее - туман. В сухую погоду видимость может ухудшаться дымом, пылью или мглою.
Явления - указаны атмосферные явления, наблюдавшиеся в срок или в последний час перед сроком; фигурными скобками обозначены явления, наблюдавшиеся между сроками (за 1-3 часа до срока); квадратными скобками обозначены град или гололедные отложения с указанием их диаметра в мм.
Облачность - указаны через наклонную черту общая и нижняя облачность в баллах и высота нижней границы облаков в метрах; квадратными скобками обозначены формы облаков: Ci - перистые, Cs - перисто-слоистые, Cc - перисто-кучевые, Ac - высококучевые, As - высокослоистые, Sc - слоисто-кучевые, Ns - слоисто-дождевые, Cu - кучевые, Cb - кучево-дождевые. Подробнее классификацию облаков см. в Атласе облаков (PDF).
T - Температура воздуха - температура, измеренная на высоте 2 м над землей.
Td - Температура точки росы - температура, при понижении до которой содержащийся в воздухе водяной пар достигнет насыщения.
f - Относительная влажность воздуха - влажноcть воздуха, измеренная на высоте 2 м над землей.
Te - Эффективная температура - температура, которую ощущает одетый по сезону человек в тени. Характеристика душности погоды. При расчете учитывается влияние влажности воздуха и скорости ветра на теплоощущения человека.
Tes - Эффективная температура на солнце - температура, которую ощущает человек, с поправкой на солнечный нагрев. Характеристика знойности погоды. Зависит от высоты солнца над горизонтом, облачности и скорости ветра. Ночью, в пасмурную погоду, а также при ветре 12 м/с и более поправка равна нулю.
P - Атмосферное давление - приведенное к уровню моря атмосферное давление.
Po - Атмосферное давление - измеренное на уровне метеостанции атмосферное давление.
Tmin - Минимальная температура - минимум температуры воздуха на высоте 2 м над землей.
Tmax - Максимальная температура - максимум температуры воздуха на высоте 2 м над землей.
R - Количество осадков - Количество выпавших осадков за период времени, мм. При наведении курсора мыши на число - период времени, за который выпало указанное количество осадков.
R24 - Количество осадков - Количество выпавших осадков за 24 часа, мм.
S - Снежный покров - Высота снежного покрова, см. При наведении курсора мыши на число - состояние снежного покрова и степень покрытия местности в баллах.